This is the latest recevied weather packets stored in our database for station/object KJ4YLO. If no packets are shown the sender has not sent any weather packets the latest 10 day(s).
| Time | Temp. | Humidity | Pressure | Rain* | Wind** | Luminosity | Snow |
|---|---|---|---|---|---|---|---|
| 1777997835 | 22.78° C | 42% | 1018 hPa | 0 mm | - | 675 W/m² | - |
| 1777997533 | 22.78° C | 43% | 1018 hPa | 0 mm | - | 678 W/m² | - |
| 1777997230 | 22.22° C | 45% | 1018 hPa | 0 mm | - | 670 W/m² | - |
| 1777996928 | 22.22° C | 45% | 1018 hPa | 0 mm | - | 717 W/m² | - |
| 1777996624 | 22.78° C | 47% | 1018.3 hPa | 0 mm | - | 665 W/m² | - |
| 1777996320 | 21.67° C | 49% | 1018.3 hPa | 0 mm | - | 745 W/m² | - |
| 1777996016 | 21.67° C | 46% | 1018.3 hPa | 0 mm | - | 734 W/m² | - |
| 1777995712 | 21.67° C | 48% | 1018.3 hPa | 0 mm | - | 438 W/m² | - |
| 1777995409 | 21.67° C | 51% | 1018.3 hPa | 0 mm | - | 173 W/m² | - |
| 1777995107 | 21.11° C | 46% | 1018.3 hPa | 0 mm | - | 211 W/m² | - |
| 1777994803 | 21.11° C | 49% | 1018.3 hPa | 0 mm | - | 183 W/m² | - |
| 1777994499 | 20.56° C | 49% | 1018.3 hPa | 0 mm | - | 191 W/m² | - |
| 1777994195 | 20.56° C | 49% | 1018.3 hPa | 0 mm | - | 163 W/m² | - |
| 1777993892 | 20° C | 51% | 1018.6 hPa | 0 mm | - | 153 W/m² | - |
| 1777993588 | 19.44° C | 52% | 1018.3 hPa | 0 mm | - | 123 W/m² | - |
| 1777993285 | 19.44° C | 52% | 1018.6 hPa | 0 mm | - | 157 W/m² | - |
| 1777992981 | 19.44° C | 58% | 1018.6 hPa | 0 mm | - | 146 W/m² | - |
| 1777992680 | 18.89° C | 59% | 1019 hPa | 0 mm | - | 145 W/m² | - |
| 1777992377 | 18.89° C | 58% | 1018.3 hPa | 0 mm | - | 137 W/m² | - |
| 1777992074 | 18.89° C | 61% | 1018.3 hPa | 0 mm | - | 87 W/m² | - |
| 1777991772 | 18.33° C | 61% | 1018.3 hPa | 0 mm | - | 72 W/m² | - |
| 1777991469 | 17.78° C | 58% | 1018.6 hPa | 0 mm | - | 81 W/m² | - |
| 1777991166 | 17.78° C | 60% | 1018.6 hPa | 0 mm | - | 58 W/m² | - |
| 1777990863 | 17.78° C | 60% | 1018.3 hPa | 0 mm | - | 239 W/m² | - |
| 1777990560 | 17.78° C | 62% | 1018.3 hPa | 0 mm | - | 298 W/m² | - |
* Rain latest hour (hover to see other rain measurements)
** Current wind speed in m/s (hover to see current wind gust speed)